Location: Bottenau
(48.5138°N, 8.0462°E)
Time: 21:17:17
(UTC+00:00)

Terra - Pass Details

Date: 18 April 2021
Orbit: 701 x 703 km, 98.2° (Epoch: 18 May)

Event Time Altitude Azimuth Distance (km) Brightness Sun altitude
Exits shadow 19:50:06 14° 87° (E) 1,938 3.6 -13.6°
Maximum altitude 19:52:07 17° 58° (ENE) 1,734 3.6 -13.9°
Drops below altitude 10° 19:55:11 10° 18° (NNE) 2,182 4.6 -14.3°
Sets 19:58:07 0° 359° (N) 3,105 5.7 -14.7°
